FW1036 Weather Reports


time (UTC)temp
F
wind
direction
speed
knots
gust
knots
rain 1hr
in
rain 24hr
in
rain mn
in
humidity
%
barometer
mb
20260505083003 47 343 5.2 13.0 0.00 0.00 0.00 82 998.3
20260505081600 47 355 7.0 9.6 0.00 0.00 0.00 82 997.9
20260505080112 48 5 5.2 12.2 0.00 0.00 0.00 81 997.7
20260505074553 50 17 7.0 9.6 0.00 0.00 0.00 79 997.5
20260505073048 54 12 7.8 12.2 0.00 0.00 0.00 75 997.1
20260505071545 61 277 1.7 7.0 0.00 0.00 0.00 71 997.0
20260505070046 61 231 3.5 7.8 0.00 0.00 0.00 72 996.7
20260505064548 60 223 4.3 7.8 0.00 0.00 0.00 74 996.7
20260505063041 59 237 7.0 13.0 0.00 0.00 0.00 77 996.8
20260505061540 59 245 2.6 3.5 0.00 0.00 0.00 78 996.8
20260505060040 59 215 1.7 3.5 0.00 0.00 0.00 78 996.9
20260505054539 60 216 0.0 3.5 0.00 0.00 0.00 77 997.0
20260505053104 61 215 1.7 4.3 0.00 0.00 0.00 73 997.2
20260505051537 60 203 0.9 5.2 0.00 0.00 0.00 75 997.1
20260505041523 61 230 3.5 10.4 0.00 0.00 0.00 72 996.4
20260505040020 62 171 2.6 10.4 0.00 0.00 0.00 72 996.2
20260505034524 62 162 4.3 8.7 0.00 0.00 0.00 71 996.3
20260505033018 62 252 4.3 13.0 0.00 0.00 0.00 71 996.5
20260505031518 62 202 3.5 13.9 0.00 0.00 0.00 70 996.4
20260505030018 62 209 4.3 13.9 0.00 0.00 0.00 68 996.4
20260505024517 63 240 5.2 12.2 0.00 0.00 0.00 66 996.5
20260505023016 63 185 4.3 9.6 0.00 0.00 0.00 62 996.5
20260505021515 63 164 3.5 8.7 0.00 0.00 0.00 60 996.5
20260505020015 64 155 0.9 4.3 0.00 0.00 0.00 58 996.7
20260505014514 64 155 1.7 6.1 0.00 0.00 0.00 58 996.5
20260505013014 63 200 0.9 4.3 0.00 0.00 0.00 59 996.3
20260505011530 65 212 2.6 5.2 0.00 0.00 0.00 56 996.1
20260505010017 65 213 2.6 5.2 0.00 0.00 0.00 54 996.0
20260505004512 66 210 1.7 6.1 0.00 0.00 0.00 51 996.2
20260505003012 67 217 2.6 7.0 0.00 0.00 0.00 49 996.1
20260505001511 68 222 3.5 7.8 0.00 0.00 0.00 46 996.3
20260505000013 69 237 4.3 10.4 0.00 0.00 0.00 44 996.1
20260504234512 69 234 4.3 7.0 0.00 0.00 0.00 43 996.2
20260504233009 70 228 6.1 10.4 0.00 0.00 0.00 41 996.1
20260504231509 71 225 7.0 16.5 0.00 0.00 0.00 39 996.3
20260504230007 72 210 6.1 10.4 0.00 0.00 0.00 38 996.3
20260504224511 72 228 7.8 16.5 0.00 0.00 0.00 37 996.7
20260504223003 72 244 9.6 14.8 0.00 0.00 0.00 36 996.8
20260504221501 72 232 8.7 15.6 0.00 0.00 0.00 35 997.1
20260504214607 74 221 11.3 17.4 0.00 0.00 0.00 32 997.2
20260504213057 74 227 8.7 15.6 0.00 0.00 0.00 32 997.2
20260504211557 74 234 7.8 19.1 0.00 0.00 0.00 33 997.2
20260504210059 74 221 8.7 14.8 0.00 0.00 0.00 32 997.4
20260504204601 74 228 9.6 17.4 0.00 0.00 0.00 32 997.3
20260504203058 74 219 8.7 17.4 0.00 0.00 0.00 33 997.3
20260504201553 74 211 7.0 17.4 0.00 0.00 0.00 34 997.5
20260504200057 75 219 8.7 17.4 0.00 0.00 0.00 33 997.6
20260504194558 74 210 10.4 20.0 0.00 0.00 0.00 31 997.7
20260504193048 75 229 9.6 17.4 0.00 0.00 0.00 33 997.9
20260504191605 74 205 11.3 20.9 0.00 0.00 0.00 32 997.9
20260504190049 74 221 13.0 20.0 0.00 0.00 0.00 31 998.0
20260504184543 74 221 8.7 20.9 0.00 0.00 0.00 35 998.1
20260504183041 74 239 10.4 18.2 0.00 0.00 0.00 34 998.2
20260504181539 73 235 10.4 20.0 0.00 0.00 0.00 35 998.4
20260504180036 73 227 12.2 19.1 0.00 0.00 0.00 37 998.7
20260504174534 73 217 8.7 17.4 0.00 0.00 0.00 38 998.9
20260504173031 73 226 9.6 14.8 0.00 0.00 0.00 39 999.2
20260504171542 72 217 9.6 17.4 0.00 0.00 0.00 39 999.4